Time,TemperatureF,DewpointF,PressureIn,WindDirection,WindDirectionDegrees,WindSpeedMPH,WindSpeedGustMPH,Humidity,HourlyPrecipIn,Conditions,Clouds,dailyrainin,SoftwareType,DateUTC
2013-02-17 00:02:00,20.0,18.0,-100.00,SE,130,6.0,7.0,89,0.00,,,-99.99,,2013-02-17 06:02:00,
2013-02-17 00:11:00,20.0,18.0,-100.00,SE,125,4.0,6.0,89,0.00,,,-99.99,,2013-02-17 06:11:00,
2013-02-17 00:21:00,20.0,18.0,-100.00,SE,125,4.0,6.0,90,0.00,,,-99.99,,2013-02-17 06:21:00,
2013-02-17 00:31:00,20.0,18.0,-100.00,ESE,115,4.0,6.0,91,0.00,,,-99.99,,2013-02-17 06:31:00,
2013-02-17 00:41:00,20.0,18.0,-100.00,ESE,115,4.0,6.0,91,0.00,,,-99.99,,2013-02-17 06:41:00,
2013-02-17 00:51:00,20.0,18.0,-100.00,ESE,115,3.0,6.0,91,0.00,,,-99.99,,2013-02-17 06:51:00,
2013-02-17 01:01:00,20.0,18.0,-100.00,ESE,115,3.0,6.0,91,0.00,,,-99.99,,2013-02-17 07:01:00,
2013-02-17 01:11:00,20.0,18.0,-100.00,ESE,110,4.0,5.0,91,0.00,,,-99.99,,2013-02-17 07:11:00,
2013-02-17 01:21:00,20.0,18.0,-100.00,ESE,115,4.0,5.0,92,0.00,,,-99.99,,2013-02-17 07:21:00,
2013-02-17 01:31:00,20.0,18.0,-100.00,ESE,105,6.0,7.0,92,0.00,,,-99.99,,2013-02-17 07:31:00,
2013-02-17 01:41:00,20.0,18.0,-100.00,ESE,105,6.0,7.0,92,0.00,,,-99.99,,2013-02-17 07:41:00,
2013-02-17 01:51:00,20.0,18.0,-100.00,ESE,110,6.0,7.0,92,0.00,,,-99.99,,2013-02-17 07:51:00,
2013-02-17 02:01:00,20.0,18.0,-100.00,ESE,110,6.0,7.0,92,0.00,,,-99.99,,2013-02-17 08:01:00,
2013-02-17 02:11:00,20.0,18.0,-100.00,ESE,110,7.0,9.0,92,0.00,,,-99.99,,2013-02-17 08:11:00,
2013-02-17 02:21:00,20.0,18.0,-100.00,ESE,110,7.0,9.0,92,0.00,,,-99.99,,2013-02-17 08:21:00,
2013-02-17 02:31:00,19.0,18.0,-100.00,ESE,105,6.0,8.0,93,0.00,,,-99.99,,2013-02-17 08:31:00,
2013-02-17 02:42:00,19.0,18.0,-100.00,ESE,105,6.0,8.0,93,0.00,,,-99.99,,2013-02-17 08:42:00,
2013-02-17 02:52:00,19.0,18.0,-100.00,ESE,115,6.0,7.0,93,0.00,,,-99.99,,2013-02-17 08:52:00,
2013-02-17 03:01:00,19.0,18.0,-100.00,ESE,115,6.0,7.0,93,0.00,,,-99.99,,2013-02-17 09:01:00,
2013-02-17 03:11:00,19.0,18.0,-100.00,ESE,115,4.0,6.0,93,0.00,,,-99.99,,2013-02-17 09:11:00,
2013-02-17 03:21:00,19.0,18.0,-100.00,ESE,115,4.0,6.0,93,0.00,,,-99.99,,2013-02-17 09:21:00,
2013-02-17 03:31:00,19.0,18.0,-100.00,ESE,120,4.0,6.0,92,0.00,,,-99.99,,2013-02-17 09:31:00,
2013-02-17 03:41:00,19.0,18.0,-100.00,ESE,120,4.0,6.0,92,0.00,,,-99.99,,2013-02-17 09:41:00,
2013-02-17 03:51:00,19.0,17.0,-100.00,ESE,120,6.0,8.0,92,0.00,,,-99.99,,2013-02-17 09:51:00,
2013-02-17 04:01:00,19.0,17.0,-100.00,ESE,120,6.0,8.0,92,0.00,,,-99.99,,2013-02-17 10:01:00,
2013-02-17 04:11:00,19.0,17.0,-100.00,ESE,120,6.0,7.0,92,0.00,,,-99.99,,2013-02-17 10:11:00,
2013-02-17 04:21:00,19.0,17.0,-100.00,ESE,120,6.0,7.0,92,0.00,,,-99.99,,2013-02-17 10:21:00,
2013-02-17 04:31:00,19.0,18.0,-100.00,ESE,110,7.0,8.0,93,0.00,,,-99.99,,2013-02-17 10:31:00,
2013-02-17 04:41:00,19.0,18.0,-100.00,ESE,110,7.0,8.0,93,0.00,,,-99.99,,2013-02-17 10:41:00,
2013-02-17 04:51:00,19.0,17.0,-100.00,ESE,110,6.0,9.0,92,0.00,,,-99.99,,2013-02-17 10:51:00,
2013-02-17 05:01:00,19.0,17.0,-100.00,ESE,110,6.0,9.0,92,0.00,,,-99.99,,2013-02-17 11:01:00,
2013-02-17 05:11:00,19.0,17.0,-100.00,ESE,110,6.0,9.0,92,0.00,,,-99.99,,2013-02-17 11:11:00,
2013-02-17 05:21:00,19.0,18.0,-100.00,ESE,110,7.0,9.0,92,0.00,,,-99.99,,2013-02-17 11:21:00,
2013-02-17 05:32:00,19.0,18.0,-100.00,ESE,120,6.0,9.0,93,0.00,,,-99.99,,2013-02-17 11:32:00,
2013-02-17 05:41:00,19.0,18.0,-100.00,ESE,120,6.0,9.0,93,0.00,,,-99.99,,2013-02-17 11:41:00,
2013-02-17 05:52:00,19.0,18.0,-100.00,ESE,115,6.0,9.0,93,0.00,,,-99.99,,2013-02-17 11:52:00,
2013-02-17 06:03:00,19.0,18.0,-100.00,ESE,115,6.0,9.0,93,0.00,,,-99.99,,2013-02-17 12:03:00,
2013-02-17 06:11:00,19.0,18.0,-100.00,ESE,115,6.0,9.0,93,0.00,,,-99.99,,2013-02-17 12:11:00,
2013-02-17 06:22:00,19.0,18.0,-100.00,ESE,120,6.0,9.0,93,0.00,,,-99.99,,2013-02-17 12:22:00,
2013-02-17 06:32:00,19.0,17.0,-100.00,ESE,115,6.0,9.0,93,0.00,,,-99.99,,2013-02-17 12:32:00,
2013-02-17 06:42:00,19.0,17.0,-100.00,ESE,115,6.0,9.0,93,0.00,,,-99.99,,2013-02-17 12:42:00,
2013-02-17 06:52:00,18.0,17.0,-100.00,ESE,120,5.0,7.0,93,0.00,,,-99.99,,2013-02-17 12:52:00,
2013-02-17 07:02:00,18.0,17.0,-100.00,ESE,120,5.0,7.0,93,0.00,,,-99.99,,2013-02-17 13:02:00,
2013-02-17 07:12:00,18.0,17.0,-100.00,ESE,120,6.0,7.0,94,0.00,,,-99.99,,2013-02-17 13:12:00,
2013-02-17 07:21:00,18.0,17.0,-100.00,ESE,120,6.0,7.0,94,0.00,,,-99.99,,2013-02-17 13:21:00,
2013-02-17 07:32:00,18.0,17.0,-100.00,ESE,120,7.0,9.0,94,0.00,,,-99.99,,2013-02-17 13:32:00,
2013-02-17 07:41:00,18.0,17.0,-100.00,ESE,120,7.0,9.0,94,0.00,,,-99.99,,2013-02-17 13:41:00,
2013-02-17 07:51:00,19.0,18.0,-100.00,ESE,120,6.0,8.0,94,0.00,,,-99.99,,2013-02-17 13:51:00,
2013-02-17 08:01:00,19.0,18.0,-100.00,ESE,120,6.0,8.0,94,0.00,,,-99.99,,2013-02-17 14:01:00,
2013-02-17 08:11:00,20.0,18.0,-100.00,ESE,110,7.0,9.0,94,0.00,,,-99.99,,2013-02-17 14:11:00,
2013-02-17 08:21:00,20.0,19.0,-100.00,ESE,120,7.0,9.0,93,0.00,,,-99.99,,2013-02-17 14:21:00,
2013-02-17 08:32:00,22.0,20.0,-100.00,SE,125,8.0,11.0,92,0.00,,,-99.99,,2013-02-17 14:32:00,
2013-02-17 08:42:00,22.0,20.0,-100.00,SE,125,8.0,11.0,92,0.00,,,-99.99,,2013-02-17 14:42:00,
2013-02-17 08:52:00,23.0,21.0,-100.00,SE,125,7.0,9.0,91,0.00,,,-99.99,,2013-02-17 14:52:00,
2013-02-17 09:02:00,23.0,21.0,-100.00,SE,125,7.0,9.0,91,0.00,,,-99.99,,2013-02-17 15:02:00,
2013-02-17 09:11:00,23.0,21.0,-100.00,SE,130,7.0,9.0,90,0.00,,,-99.99,,2013-02-17 15:11:00,
2013-02-17 09:21:00,24.0,22.0,-100.00,SE,125,8.0,9.0,89,0.00,,,-99.99,,2013-02-17 15:21:00,
2013-02-17 09:32:00,24.0,22.0,-100.00,SE,125,8.0,9.0,89,0.00,,,-99.99,,2013-02-17 15:32:00,
2013-02-17 09:41:00,24.0,22.0,-100.00,SE,125,8.0,9.0,89,0.00,,,-99.99,,2013-02-17 15:41:00,
2013-02-17 09:52:00,28.0,24.0,-100.00,SE,135,9.0,10.0,83,0.00,,,-99.99,,2013-02-17 15:52:00,
2013-02-17 10:01:00,28.0,24.0,-100.00,SE,135,9.0,10.0,83,0.00,,,-99.99,,2013-02-17 16:01:00,
2013-02-17 10:11:00,29.0,24.0,-100.00,SE,145,10.0,11.0,82,0.00,,,-99.99,,2013-02-17 16:11:00,
2013-02-17 10:21:00,29.0,24.0,-100.00,SE,135,11.0,13.0,79,0.00,,,-99.99,,2013-02-17 16:21:00,
2013-02-17 10:32:00,31.0,25.0,-100.00,SE,145,9.0,13.0,76,0.00,,,-99.99,,2013-02-17 16:32:00,
2013-02-17 10:41:00,31.0,25.0,-100.00,SE,145,9.0,13.0,76,0.00,,,-99.99,,2013-02-17 16:41:00,
2013-02-17 10:51:00,32.0,25.0,-100.00,SE,140,11.0,14.0,73,0.00,,,-99.99,,2013-02-17 16:51:00,
2013-02-17 11:02:00,32.0,25.0,-100.00,SE,140,11.0,14.0,73,0.00,,,-99.99,,2013-02-17 17:02:00,
2013-02-17 11:11:00,33.0,24.0,-100.00,SE,135,12.0,14.0,71,0.00,,,-99.99,,2013-02-17 17:11:00,
2013-02-17 11:21:00,33.0,25.0,-100.00,SE,140,11.0,14.0,69,0.00,,,-99.99,,2013-02-17 17:21:00,
2013-02-17 11:32:00,35.0,25.0,-100.00,SE,140,11.0,15.0,66,0.00,,,-99.99,,2013-02-17 17:32:00,
2013-02-17 11:41:00,35.0,25.0,-100.00,SE,140,11.0,15.0,66,0.00,,,-99.99,,2013-02-17 17:41:00,
2013-02-17 11:52:00,37.0,25.0,-100.00,SE,135,11.0,14.0,63,0.00,,,-99.99,,2013-02-17 17:52:00,
2013-02-17 12:02:00,37.0,25.0,-100.00,SE,135,11.0,14.0,63,0.00,,,-99.99,,2013-02-17 18:02:00,
2013-02-17 12:11:00,37.0,25.0,-100.00,SE,145,12.0,14.0,61,0.00,,,-99.99,,2013-02-17 18:11:00,
2013-02-17 12:22:00,38.0,24.0,-100.00,SSE,150,14.0,18.0,57,0.00,,,-99.99,,2013-02-17 18:22:00,
2013-02-17 12:33:00,39.0,24.0,-100.00,SSE,150,12.0,16.0,55,0.00,,,-99.99,,2013-02-17 18:33:00,
2013-02-17 12:42:00,39.0,24.0,-100.00,SSE,150,12.0,16.0,55,0.00,,,-99.99,,2013-02-17 18:42:00,
2013-02-17 12:52:00,40.0,24.0,-100.00,SE,140,12.0,15.0,52,0.00,,,-99.99,,2013-02-17 18:52:00,
2013-02-17 13:01:00,40.0,24.0,-100.00,SE,140,12.0,15.0,52,0.00,,,-99.99,,2013-02-17 19:01:00,
2013-02-17 13:11:00,40.0,24.0,-100.00,SE,140,13.0,16.0,52,0.00,,,-99.99,,2013-02-17 19:11:00,
2013-02-17 13:21:00,40.0,24.0,-100.00,SE,130,13.0,16.0,51,0.00,,,-99.99,,2013-02-17 19:21:00,
2013-02-17 13:32:00,41.0,23.0,-100.00,SE,130,13.0,17.0,49,0.00,,,-99.99,,2013-02-17 19:32:00,
2013-02-17 13:41:00,41.0,23.0,-100.00,SE,130,13.0,17.0,49,0.00,,,-99.99,,2013-02-17 19:41:00,
2013-02-17 13:51:00,42.0,24.0,-100.00,SE,135,14.0,18.0,48,0.00,,,-99.99,,2013-02-17 19:51:00,
2013-02-17 14:02:00,42.0,24.0,-100.00,SE,135,14.0,18.0,48,0.00,,,-99.99,,2013-02-17 20:02:00,
2013-02-17 14:11:00,42.0,24.0,-100.00,SE,140,12.0,17.0,48,0.00,,,-99.99,,2013-02-17 20:11:00,
2013-02-17 14:21:00,42.0,24.0,-100.00,SE,145,13.0,16.0,48,0.00,,,-99.99,,2013-02-17 20:21:00,
2013-02-17 14:32:00,43.0,25.0,-100.00,SE,140,13.0,17.0,47,0.00,,,-99.99,,2013-02-17 20:32:00,
2013-02-17 14:42:00,43.0,25.0,-100.00,SE,140,13.0,17.0,47,0.00,,,-99.99,,2013-02-17 20:42:00,
2013-02-17 14:52:00,43.0,24.0,-100.00,SE,135,14.0,17.0,46,0.00,,,-99.99,,2013-02-17 20:52:00,
2013-02-17 15:01:00,43.0,24.0,-100.00,SE,135,14.0,17.0,46,0.00,,,-99.99,,2013-02-17 21:01:00,
2013-02-17 15:11:00,43.0,24.0,-100.00,SE,140,12.0,17.0,46,0.00,,,-99.99,,2013-02-17 21:11:00,
2013-02-17 15:21:00,43.0,24.0,-100.00,SE,145,12.0,16.0,46,0.00,,,-99.99,,2013-02-17 21:21:00,
2013-02-17 15:32:00,44.0,25.0,-100.00,SE,135,14.0,17.0,46,0.00,,,-99.99,,2013-02-17 21:32:00,
2013-02-17 15:41:00,44.0,25.0,-100.00,SE,135,14.0,17.0,46,0.00,,,-99.99,,2013-02-17 21:41:00,
2013-02-17 15:52:00,43.0,24.0,-100.00,SE,145,14.0,17.0,46,0.00,,,-99.99,,2013-02-17 21:52:00,
2013-02-17 16:01:00,43.0,24.0,-100.00,SE,145,14.0,17.0,46,0.00,,,-99.99,,2013-02-17 22:01:00,
2013-02-17 16:12:00,43.0,24.0,-100.00,SE,135,11.0,17.0,46,0.00,,,-99.99,,2013-02-17 22:12:00,
2013-02-17 16:21:00,43.0,25.0,-100.00,SE,145,14.0,19.0,47,0.00,,,-99.99,,2013-02-17 22:21:00,
2013-02-17 16:32:00,42.0,24.0,-100.00,SE,135,11.0,17.0,48,0.00,,,-99.99,,2013-02-17 22:32:00,
2013-02-17 16:41:00,42.0,24.0,-100.00,SE,135,11.0,17.0,48,0.00,,,-99.99,,2013-02-17 22:41:00,
2013-02-17 16:52:00,41.0,24.0,-100.00,SE,135,12.0,13.0,50,0.00,,,-99.99,,2013-02-17 22:52:00,
2013-02-17 17:02:00,41.0,24.0,-100.00,SE,135,12.0,13.0,50,0.00,,,-99.99,,2013-02-17 23:02:00,
2013-02-17 17:11:00,41.0,24.0,-100.00,SE,135,11.0,14.0,50,0.00,,,-99.99,,2013-02-17 23:11:00,
2013-02-17 17:21:00,40.0,24.0,-100.00,SE,135,9.0,13.0,51,0.00,,,-99.99,,2013-02-17 23:21:00,
2013-02-17 17:32:00,40.0,24.0,-100.00,SE,125,9.0,11.0,53,0.00,,,-99.99,,2013-02-17 23:32:00,
2013-02-17 17:42:00,40.0,24.0,-100.00,SE,125,9.0,11.0,53,0.00,,,-99.99,,2013-02-17 23:42:00,
2013-02-17 17:52:00,38.0,24.0,-100.00,SE,125,9.0,12.0,55,0.00,,,-99.99,,2013-02-17 23:52:00,
2013-02-17 18:01:00,38.0,24.0,-100.00,SE,125,9.0,12.0,55,0.00,,,-99.99,,2013-02-18 00:01:00,
2013-02-17 18:11:00,38.0,24.0,-100.00,SE,125,9.0,11.0,55,0.00,,,-99.99,,2013-02-18 00:11:00,
2013-02-17 18:22:00,37.0,23.0,-100.00,SE,130,7.0,11.0,56,0.00,,,-99.99,,2013-02-18 00:22:00,
2013-02-17 18:32:00,37.0,24.0,-100.00,SE,130,7.0,11.0,58,0.00,,,-99.99,,2013-02-18 00:32:00,
2013-02-17 18:41:00,37.0,24.0,-100.00,SE,130,7.0,11.0,58,0.00,,,-99.99,,2013-02-18 00:41:00,
2013-02-17 18:52:00,36.0,24.0,-100.00,SE,135,7.0,10.0,60,0.00,,,-99.99,,2013-02-18 00:52:00,
2013-02-17 19:01:00,36.0,24.0,-100.00,SE,135,7.0,10.0,60,0.00,,,-99.99,,2013-02-18 01:01:00,
2013-02-17 19:11:00,36.0,24.0,-100.00,SE,135,9.0,12.0,60,0.00,,,-99.99,,2013-02-18 01:11:00,
2013-02-17 19:21:00,37.0,24.0,-100.00,SE,135,10.0,13.0,59,0.00,,,-99.99,,2013-02-18 01:21:00,
2013-02-17 19:31:00,36.0,24.0,-100.00,SE,135,8.0,11.0,60,0.00,,,-99.99,,2013-02-18 01:31:00,
2013-02-17 19:41:00,36.0,24.0,-100.00,SE,135,8.0,11.0,60,0.00,,,-99.99,,2013-02-18 01:41:00,
2013-02-17 19:51:00,36.0,24.0,-100.00,SE,130,9.0,13.0,60,0.00,,,-99.99,,2013-02-18 01:51:00,
2013-02-17 20:01:00,36.0,24.0,-100.00,SE,130,9.0,13.0,60,0.00,,,-99.99,,2013-02-18 02:01:00,
2013-02-17 20:11:00,36.0,24.0,-100.00,ESE,120,8.0,12.0,60,0.00,,,-99.99,,2013-02-18 02:11:00,
2013-02-17 20:21:00,35.0,24.0,-100.00,ESE,115,7.0,10.0,62,0.00,,,-99.99,,2013-02-18 02:21:00,
2013-02-17 20:32:00,35.0,24.0,-100.00,SE,125,7.0,10.0,64,0.00,,,-99.99,,2013-02-18 02:32:00,
2013-02-17 20:41:00,35.0,24.0,-100.00,SE,125,7.0,10.0,64,0.00,,,-99.99,,2013-02-18 02:41:00,
2013-02-17 20:52:00,35.0,24.0,-100.00,SE,130,7.0,9.0,64,0.00,,,-99.99,,2013-02-18 02:52:00,
2013-02-17 21:01:00,35.0,24.0,-100.00,SE,130,7.0,9.0,64,0.00,,,-99.99,,2013-02-18 03:01:00,
2013-02-17 21:11:00,35.0,24.0,-100.00,SE,125,7.0,10.0,64,0.00,,,-99.99,,2013-02-18 03:11:00,
2013-02-17 21:21:00,35.0,24.0,-100.00,SE,125,7.0,11.0,64,0.00,,,-99.99,,2013-02-18 03:21:00,
2013-02-17 21:31:00,35.0,24.0,-100.00,SE,135,9.0,13.0,63,0.00,,,-99.99,,2013-02-18 03:31:00,
2013-02-17 21:42:00,35.0,24.0,-100.00,SE,135,9.0,13.0,63,0.00,,,-99.99,,2013-02-18 03:42:00,
2013-02-17 21:51:00,35.0,24.0,-100.00,SE,140,9.0,11.0,63,0.00,,,-99.99,,2013-02-18 03:51:00,
2013-02-17 22:01:00,35.0,24.0,-100.00,SE,140,9.0,11.0,63,0.00,,,-99.99,,2013-02-18 04:01:00,
2013-02-17 22:11:00,34.0,24.0,-100.00,SE,145,8.0,11.0,65,0.00,,,-99.99,,2013-02-18 04:11:00,
2013-02-17 22:21:00,34.0,24.0,-100.00,SE,140,9.0,11.0,66,0.00,,,-99.99,,2013-02-18 04:21:00,
2013-02-17 22:32:00,34.0,24.0,-100.00,SE,140,9.0,11.0,67,0.00,,,-99.99,,2013-02-18 04:32:00,
2013-02-17 22:41:00,34.0,24.0,-100.00,SE,140,9.0,11.0,67,0.00,,,-99.99,,2013-02-18 04:41:00,
2013-02-17 22:51:00,34.0,25.0,-100.00,SE,140,9.0,12.0,67,0.00,,,-99.99,,2013-02-18 04:51:00,
2013-02-17 23:02:00,34.0,25.0,-100.00,SE,140,9.0,12.0,67,0.00,,,-99.99,,2013-02-18 05:02:00,
2013-02-17 23:11:00,34.0,25.0,-100.00,SE,135,9.0,12.0,67,0.00,,,-99.99,,2013-02-18 05:11:00,
2013-02-17 23:21:00,34.0,24.0,-100.00,SE,145,8.0,12.0,67,0.00,,,-99.99,,2013-02-18 05:21:00,
2013-02-17 23:31:00,34.0,25.0,-100.00,SE,135,7.0,11.0,68,0.00,,,-99.99,,2013-02-18 05:31:00,
2013-02-17 23:41:00,34.0,25.0,-100.00,SE,135,7.0,11.0,68,0.00,,,-99.99,,2013-02-18 05:41:00,
2013-02-17 23:52:00,33.0,24.0,-100.00,SE,135,7.0,10.0,70,0.00,,,-99.99,,2013-02-18 05:52:00,